Key West, FL

6:56 AM EST on December 06, 2016 (GMT -0500)
Key West International

Weather History for KEYW - November, 2013

Change the Weather History Date:

Monday, November 25, 2013

  Actual Average Record
Temperature  
Mean Temperature 75 °F 74 °F  
Max Temperature 79 °F 79 °F 88 °F (1886)
Min Temperature 71 °F 70 °F 50 °F (1970)
Degree Days  
Heating Degree Days 0 0  
Month to date heating degree days 0 0  
Since 1 July heating degree days 0 0  
Cooling Degree Days 10 10  
Month to date cooling degree days 338 280  
Year to date cooling degree days 4724 4488  
Growing Degree Days 25 (Base 50)    
Moisture  
Dew Point 70 °F    
Average Humidity 82    
Maximum Humidity 93    
Minimum Humidity 71    
Precipitation  
Precipitation 1.30 in 0.08 in 5.05 in (2009)
Month to date precipitation 2.52 1.91  
Year to date precipitation 43.87 37.22  
Snow  
Snow 0.00 in - - ()
Month to date snowfall 0.0  
Since 1 July snowfall 0.0  
Since 1 September snowfall 0.0  
Snow Depth 0.00 in    
Sea Level Pressure  
Sea Level Pressure 30.05 in    
Wind  
Wind Speed 16 mph (East)    
Max Wind Speed 35 mph    
Max Gust Speed 43 mph    
Visibility 8 miles    
Events Rain , Thunderstorm    
T = Trace of Precipitation, MM = Missing Value Source: NWS Daily Summary

Daily Weather History Graph

Daily Weather History Graph

Search for Another Location

Airport or City:

Trip Planner

Search our weather history database for the weather conditions in past years. The results will help you decide how hot, cold, wet, or windy it might be!

Date:

Astronomy

Nov. 25, 2013 Rise Set
Actual Time 6:50 AM EST 5:37 PM EST
Civil Twilight 6:25 AM EST 6:02 PM EST
Nautical Twilight 5:57 AM EST 6:30 PM EST
Astronomical Twilight 5:30 AM EST 6:57 PM EST
Moon No Moon Rise 12:30 PM EST (11/25)
Length of Visible Light 11h 36m
Length of Day
10h 47m
Waning Gibbous, 51% of the Moon is Illuminated
Nov 25
Waning Gibbous
Nov 25
Last Quarter
Dec 2
New
Dec 9
First Quarter
Dec 17
Full

Hourly Weather History & Observations

Time (EST) Temp. Dew Point Humidity Pressure Visibility Wind Dir Wind Speed Gust Speed Precip Events Conditions
12:53 AM 73.9 °F 69.1 °F 85% 30.08 in 10.0 mi ENE 13.8 mph 20.7 mph N/A   Scattered Clouds
1:06 AM 75.0 °F 69.1 °F 82% 30.08 in 10.0 mi ENE 15.0 mph 23.0 mph N/A   Mostly Cloudy
1:19 AM 75.0 °F 69.1 °F 82% 30.08 in 10.0 mi ENE 15.0 mph 24.2 mph N/A   Mostly Cloudy
1:53 AM 73.0 °F 69.1 °F 87% 30.07 in 6.0 mi ENE 12.7 mph 25.3 mph 0.00 in Rain Light Rain
2:53 AM 73.9 °F 68.0 °F 82% 30.07 in 10.0 mi ENE 15.0 mph 24.2 mph 0.00 in   Mostly Cloudy
3:53 AM 73.0 °F 68.0 °F 84% 30.07 in 10.0 mi NE 15.0 mph 26.5 mph N/A   Clear
4:46 AM 72.0 °F 69.1 °F 91% 30.07 in 10.0 mi NE 12.7 mph 20.7 mph 0.00 in   Overcast
4:53 AM 72.0 °F 69.1 °F 91% 30.07 in 8.0 mi ENE 15.0 mph 23.0 mph 0.00 in   Overcast
5:53 AM 73.9 °F 68.0 °F 82% 30.06 in 10.0 mi ENE 13.8 mph 20.7 mph 0.00 in   Overcast
6:53 AM 73.9 °F 66.9 °F 79% 30.08 in 10.0 mi ENE 15.0 mph 26.5 mph N/A   Clear
7:53 AM 75.0 °F 66.9 °F 76% 30.09 in 10.0 mi East 12.7 mph - N/A   Scattered Clouds
8:53 AM 75.9 °F 66.9 °F 74% 30.11 in 10.0 mi ENE 18.4 mph 31.1 mph N/A   Mostly Cloudy
9:53 AM 77.0 °F 68.0 °F 74% 30.12 in 10.0 mi ENE 17.3 mph 31.1 mph N/A   Partly Cloudy
10:53 AM 78.1 °F 68.0 °F 71% 30.12 in 10.0 mi East 19.6 mph 26.5 mph N/A   Overcast
11:53 AM 78.1 °F 69.1 °F 74% 30.11 in 10.0 mi ENE 13.8 mph 31.1 mph N/A   Overcast
12:53 PM 78.1 °F 69.1 °F 74% 30.07 in 10.0 mi East 13.8 mph 29.9 mph N/A   Overcast
1:53 PM 78.1 °F 69.1 °F 74% 30.05 in 10.0 mi East 15.0 mph 29.9 mph N/A   Overcast
2:33 PM 77.0 °F 68.0 °F 74% 30.05 in 10.0 mi ENE 19.6 mph 26.5 mph 0.00 in   Overcast
2:41 PM 77.0 °F 69.1 °F 76% 30.05 in 10.0 mi East 18.4 mph 26.5 mph 0.00 in   Overcast
2:53 PM 77.0 °F 69.1 °F 76% 30.05 in 10.0 mi ENE 16.1 mph 28.8 mph 0.00 in   Overcast
3:53 PM 75.9 °F 68.0 °F 76% 30.03 in 10.0 mi ENE 18.4 mph 26.5 mph N/A   Mostly Cloudy
4:43 PM 73.0 °F 69.1 °F 87% 30.03 in 6.0 mi East 17.3 mph 25.3 mph 0.01 in Rain Light Rain
4:53 PM 73.9 °F 70.0 °F 87% 30.03 in 10.0 mi ENE 17.3 mph 25.3 mph 0.01 in   Overcast
5:20 PM 73.0 °F 70.0 °F 90% 30.04 in 3.0 mi East 12.7 mph 27.6 mph 0.00 in Rain Rain
5:44 PM 73.0 °F 70.0 °F 90% 30.03 in 2.5 mi ENE 17.3 mph 25.3 mph 0.07 in Rain Rain
5:51 PM 73.4 °F 69.8 °F 88% 30.03 in 9.0 mi ENE 15.0 mph 23.0 mph 0.08 in Rain Light Rain
5:53 PM 73.0 °F 70.0 °F 90% 30.04 in 10.0 mi ENE 12.7 mph 23.0 mph 0.08 in Rain Light Rain
6:03 PM 73.0 °F 70.0 °F 90% 30.04 in 10.0 mi ENE 16.1 mph 26.5 mph 0.00 in   Overcast
6:43 PM 72.0 °F 70.0 °F 93% 30.05 in 3.0 mi East 13.8 mph - 0.08 in Rain Heavy Rain
6:47 PM 71.6 °F 69.8 °F 94% 30.05 in 1.8 mi East 12.7 mph 20.7 mph 0.17 in Rain Heavy Rain
6:53 PM 71.1 °F 70.0 °F 96% 30.05 in 1.5 mi East 18.4 mph 26.5 mph 0.30 in Rain Heavy Rain
7:05 PM 71.1 °F 70.0 °F 96% 30.05 in 3.0 mi East 17.3 mph 28.8 mph 0.13 in Rain Heavy Rain
7:20 PM 72.0 °F 71.1 °F 97% 30.05 in 2.5 mi ENE 9.2 mph 18.4 mph 0.19 in Rain Heavy Rain
7:35 PM 72.0 °F 71.1 °F 97% 30.04 in 9.0 mi ENE 13.8 mph 26.5 mph 0.30 in Rain Light Rain
7:45 PM 72.0 °F 71.1 °F 97% 30.04 in 10.0 mi ENE 13.8 mph 21.9 mph 0.30 in   Overcast
7:53 PM 73.0 °F 71.1 °F 93% 30.05 in 10.0 mi ENE 12.7 mph 24.2 mph 0.30 in   Mostly Cloudy
8:22 PM 73.0 °F 72.0 °F 96% 30.05 in 10.0 mi ENE 13.8 mph 21.9 mph N/A   Mostly Cloudy
8:31 PM 73.0 °F 72.0 °F 96% 30.05 in 10.0 mi East 13.8 mph 21.9 mph N/A   Mostly Cloudy
8:53 PM 73.0 °F 72.0 °F 96% 30.05 in 10.0 mi ENE 10.4 mph 18.4 mph N/A   Mostly Cloudy
9:46 PM 73.9 °F 72.0 °F 93% 30.03 in 10.0 mi East 19.6 mph 26.5 mph 0.00 in   Mostly Cloudy
9:53 PM 75.0 °F 72.0 °F 90% 30.03 in 10.0 mi East 19.6 mph 26.5 mph 0.00 in Rain Light Rain
10:10 PM 75.0 °F 72.0 °F 90% 30.03 in 10.0 mi East 19.6 mph 27.6 mph 0.00 in   Mostly Cloudy
10:27 PM 75.0 °F 72.0 °F 90% 30.03 in 10.0 mi East 19.6 mph 28.8 mph 0.00 in Thunderstorm Mostly Cloudy
10:43 PM 75.9 °F 72.0 °F 87% 30.03 in 10.0 mi ESE 17.3 mph 27.6 mph 0.00 in Rain Light Rain
10:53 PM 73.9 °F 71.1 °F 91% 30.03 in 4.0 mi SE 26.5 mph 36.8 mph 0.01 in Rain , Thunderstorm Heavy Thunderstorms and Rain
10:56 PM 73.0 °F 71.1 °F 93% 30.03 in 1.5 mi SSE 32.2 mph 42.6 mph 0.04 in Rain , Thunderstorm Heavy Thunderstorms and Rain
10:58 PM 73.0 °F 71.1 °F 93% 30.02 in 1.0 mi SSE 31.1 mph 42.6 mph 0.12 in Rain , Thunderstorm Heavy Thunderstorms and Rain
11:07 PM 72.0 °F 71.1 °F 97% 30.03 in 1.2 mi SE 25.3 mph 39.1 mph 0.44 in Rain , Thunderstorm Heavy Thunderstorms and Rain
11:15 PM 72.0 °F 71.1 °F 97% 30.02 in 2.0 mi SE 21.9 mph 32.2 mph 0.53 in Rain Heavy Rain
11:25 PM 73.9 °F 72.0 °F 93% 30.02 in 4.0 mi SSE 17.3 mph 32.2 mph 0.58 in Rain Heavy Rain
11:33 PM 75.0 °F 73.0 °F 94% 30.01 in 6.0 mi SE 13.8 mph - 0.60 in Rain Rain
11:53 PM 75.9 °F 72.0 °F 87% 30.01 in 10.0 mi ESE 18.4 mph 26.5 mph 0.60 in   Scattered Clouds